Location: Kerb�bon
(47.7970°N, 3.3487°W)
Time: 10:23:18
(UTC+00:00)

SPOT 5 - Pass Details

Date: 12 May 2021
Orbit: 623 x 815 km, 98.2° (Epoch: 18 June)

Event Time Altitude Azimuth Distance (km) Brightness Sun altitude
Exits shadow 20:47:35 12° 121° (ESE) 2,163 4.7 -9.9°
Maximum altitude 20:51:35 31° 63° (ENE) 1,370 4.1 -10.4°
Drops below altitude 10° 20:56:11 10° 4° (N) 2,400 6.2 -11.0°
Sets 20:58:47 0° 354° (N) 3,347 7.2 -11.3°
